Regional Weather Roundup
Issued by NWS

Home | Current Version | Previous Version | Graphics & Text | Print | Product List | Glossary On
Versions: 1 2 3 4 5 6 7 8 9 10 11 12 13 14 15 16 17 18 19 20 21 22 23 24 25 26 27 28 29 30 31 32 33 34 35 36 37 38 39 40 41 42 43 44 45 46 47 48 49 50
000
ASUS43 KOAX 021810
RWRNE

WEATHER ROUNDUP FOR NEBRASKA
NATIONAL WEATHER SERVICE OMAHA NE
100 PM CDT THU JUL 02 2015

NOTES: SATELLITE DATA IS BEING USED TO AUGMENT CLOUD COVER ABOVE
       12000 FEET.
       "FAIR" INDICATES FEW OR NO CLOUDS BELOW 12,000 FEET WITH NO
       SIGNIFICANT WEATHER AND/OR OBSTRUCTIONS TO VISIBILITY.

  * THESE STATIONS DO NOT REPORT WEATHER SUCH AS RAIN...SNOW OR FOG.

NEZ001>004-019>022-054>056-021900-
NEBRASKA PANHANDLE

CITY           SKY/WX    TMP DP  RH WIND       PRES   REMARKS
SCOTTSBLUFF    SUNNY     83  56  39 NW7       30.12F
6HR MIN TEMP:  61; 6HR MAX TEMP:  83;

ALLIANCE       SUNNY     76  59  55 N15G21    30.12S
6HR MIN TEMP:  57; 6HR MAX TEMP:  77;

CHADRON        MOSUNNY   80  60  50 NE12      30.10S
6HR MIN TEMP:  60; 6HR MAX TEMP:  81;

SIDNEY         SUNNY     78  59  51 N15G21    30.15F
6HR MIN TEMP:  58; 6HR MAX TEMP:  79;

$$

NEZ057>060-069>072-079>082-021900-
SOUTHWEST NEBRASKA

CITY           SKY/WX    TMP DP  RH WIND       PRES   REMARKS
NORTH PLATTE   MOSUNNY   83  59  44 N12       30.02S
6HR MIN TEMP:  62; 6HR MAX TEMP:  85; 6HR PCP:  0.01;

IMPERIAL       MOSUNNY   82  58  43 NW13G25   30.07S
6HR MIN TEMP:  61; 6HR MAX TEMP:  82; 6HR PCP:  0.01;

MCCOOK         MOSUNNY   85  56  37 NW15G21   30.02S
6HR MIN TEMP:  64; 6HR MAX TEMP:  85; 6HR PCP: TRACE;

$$

NEZ005>010-023>029-035>040-094-021900-
NORTH CENTRAL NEBRASKA

CITY           SKY/WX    TMP DP  RH WIND       PRES   REMARKS
VALENTINE      MOSUNNY   77  59  53 N13G24    30.03S
6HR MIN TEMP:  63; 6HR MAX TEMP:  77;

BROKEN BOW     PTSUNNY   81  65  58 N14       29.99S
6HR MIN TEMP:  66; 6HR MAX TEMP:  81; 6HR PCP:  0.01;

ORD            PTSUNNY   81  64  56 NW9       29.94S
6HR MIN TEMP:  69; 6HR MAX TEMP:  86;

$$

NEZ041-046>049-061>064-073>077-083>087-021900-
SOUTH CENTRAL NEBRASKA

CITY           SKY/WX    TMP DP  RH WIND       PRES   REMARKS
GRAND ISLAND   PTSUNNY   81  64  56 N8        29.96R
6HR MIN TEMP:  68; 6HR MAX TEMP:  82; 6HR PCP:  0.10;

HASTINGS       MOSUNNY   81  62  52 N8        29.96S
6HR MIN TEMP:  68; 6HR MAX TEMP:  82; 6HR PCP:  0.37;

KEARNEY *      PTSUNNY   81  63  54 N10       29.98R
$$

NEZ011>018-030>034-042>045-021900-
NORTHEAST NEBRASKA

CITY           SKY/WX    TMP DP  RH WIND       PRES   REMARKS
NORFOLK        CLOUDY    65  63  93 E9        29.96S
6HR MIN TEMP:  61; 6HR MAX TEMP:  65; 6HR PCP:  0.28;

COLUMBUS *     PTSUNNY   72  64  78 SE7       29.97R
TEKAMAH        LGT RAIN  67  63  87 SE5       29.97F FOG
6HR MIN TEMP:  63; 6HR MAX TEMP:  68; 6HR PCP:  0.02;

$$

NEZ050>053-065>068-078-088>093-021900-
SOUTHEAST NEBRASKA

CITY           SKY/WX    TMP DP  RH WIND       PRES   REMARKS
LINCOLN        TSTM      66  65  96 E5        29.96R FOG
6HR MIN TEMP:  65; 6HR MAX TEMP:  68; 6HR PCP:  0.44;

OMAHA EPPLEY   RAIN      66  64  93 E5        29.96F FOG
6HR MIN TEMP:  64; 6HR MAX TEMP:  66; 6HR PCP:  0.28;

FALLS CITY     CLOUDY    71  66  84 VRB5      29.95F
6HR MIN TEMP:  69; 6HR MAX TEMP:  71; 6HR PCP: TRACE;

$$

NEZ044-045-051>053-067-021900-
OMAHA AREA

CITY           SKY/WX    TMP DP  RH WIND       PRES   REMARKS
OMAHA EPPLEY   RAIN      66  64  93 E5        29.96F FOG
6HR MIN TEMP:  64; 6HR MAX TEMP:  66; 6HR PCP:  0.28;

OFFUTT AFB     LGT RAIN  66  64  94 E6        29.95F
$$



USA.gov is the U.S. government's official web portal to all federal, state and local government web resources and services.